M I D A S
Marine Information and Data Acquisition System
Tripno 1165 of the Zeeleeuw from 2006-09-06 05:03:03 to 2006-09-06 16:12:47
Back to CruiseResearch ActivitiesStationsMapUnderway DataData graphs

EquipmentUnitsComments
TimeDGPSUTC
LatitudeDGPSDM.mWGS84
LongitudeDGPSDM.mWGS84
SpeedMeteo Stationm/sRelative wind speed
DirectionMeteo StationdegRelative wind direction
TemperatureMeteo Stationdeg CelciusAir temperature
PressureMeteo StationPaAtmospheric pressure
HumidityMeteo Station%Relative humidity
Missing or incorrect values are displayed as -999
Metereological data collected by the RV Zeeleeuw from 2006-09-06 04:42:15 to 2006-09-06 16:26:44
                                                                                    Next 1000 lines
Time Latitude Longitude Speed Direction Temperature Pressure Humidity
2006-09-06 04:42:25 51°13.596 2°56.092 1.5 19 16.4 101860 99
2006-09-06 04:42:30 51°13.597 2°56.092 2 20 16.4 101860 99
2006-09-06 04:42:35 51°13.597 2°56.092 1.8 16 16.4 101860 99
2006-09-06 04:42:40 51°13.597 2°56.092 2.3 17 16.4 101860 99
2006-09-06 04:42:45 51°13.597 2°56.093 1.9 21 16.4 101860 99
2006-09-06 04:42:50 51°13.597 2°56.094 1.8 10 16.4 101860 99
2006-09-06 04:42:55 51°13.598 2°56.095 1.9 13 16.4 101860 99
2006-09-06 04:43:00 51°13.598 2°56.093 2 26 16.4 101860 99
2006-09-06 04:43:05 51°13.598 2°56.093 2 23 16.4 101860 99
2006-09-06 04:43:10 51°13.598 2°56.094 2.3 10 16.4 101860 99
2006-09-06 04:43:15 51°13.598 2°56.094 1.9 22 16.4 101860 99
2006-09-06 04:43:20 51°13.598 2°56.094 1.9 33 16.4 101860 99
2006-09-06 04:43:25 51°13.598 2°56.094 1.8 25 16.4 101860 99
2006-09-06 04:43:30 51°13.598 2°56.094 2.5 24 16.4 101860 99
2006-09-06 04:43:35 51°13.598 2°56.094 2.9 19 16.4 101860 99
2006-09-06 04:43:40 51°13.598 2°56.094 2.6 26 16.4 101860 99
2006-09-06 04:43:45 51°13.598 2°56.094 2.4 14 16.4 101860 99
2006-09-06 04:43:50 51°13.598 2°56.094 1.8 25 16.4 101860 99
2006-09-06 04:43:55 51°13.598 2°56.095 1.6 31 16.4 101860 99
2006-09-06 04:44:00 51°13.598 2°56.095 1.5 32 16.4 101860 99
2006-09-06 04:44:05 51°13.598 2°56.095 1.6 25 16.4 101860 99
2006-09-06 04:44:10 51°13.598 2°56.095 1.4 14 16.4 101860 99
2006-09-06 04:44:15 51°13.598 2°56.095 1.2 21 16.4 101860 99
2006-09-06 04:44:20 51°13.598 2°56.095 1.1 26 16.4 101860 99
2006-09-06 04:44:25 51°13.598 2°56.095 1.2 17 16.4 101860 99
2006-09-06 04:44:30 51°13.597 2°56.094 0.8 29 16.4 101860 99
2006-09-06 04:44:35 51°13.597 2°56.094 0.8 11 16.4 101860 99
2006-09-06 04:44:40 51°13.597 2°56.094 0.7 8 16.4 101860 99
2006-09-06 04:44:45 51°13.597 2°56.094 1.4 347 16.4 101860 99
2006-09-06 04:44:50 51°13.597 2°56.094 1.2 359 16.4 101860 99
2006-09-06 04:44:55 51°13.597 2°56.094 0.8 4 16.4 101860 99
2006-09-06 04:45:00 51°13.597 2°56.094 0.9 13 16.4 101860 99
2006-09-06 04:45:05 51°13.597 2°56.094 0.8 21 16.4 101860 99
2006-09-06 04:45:10 51°13.597 2°56.094 1.3 5 16.4 101860 99
2006-09-06 04:45:15 51°13.597 2°56.094 1.7 11 16.4 101860 99
2006-09-06 04:45:20 51°13.597 2°56.094 1.4 13 16.4 101860 99
2006-09-06 04:45:25 51°13.597 2°56.094 1.3 6 16.4 101860 99
2006-09-06 04:45:30 51°13.597 2°56.094 0.9 3 16.4 101860 99
2006-09-06 04:45:35 51°13.597 2°56.094 1.3 23 16.4 101860 99
2006-09-06 04:45:40 51°13.597 2°56.094 1.1 31 16.4 101860 99
2006-09-06 04:45:45 51°13.597 2°56.094 1.2 20 16.4 101860 99
2006-09-06 04:45:50 51°13.597 2°56.094 1.2 7 16.4 101860 99
2006-09-06 04:45:55 51°13.597 2°56.094 1.4 13 16.4 101860 99
2006-09-06 04:46:00 51°13.597 2°56.094 1.1 15 16.4 101860 99
2006-09-06 04:46:05 51°13.597 2°56.094 1 360 16.4 101860 99
2006-09-06 04:46:10 51°13.597 2°56.094 0.8 357 16.4 101860 99
2006-09-06 04:46:15 51°13.597 2°56.095 1.3 27 16.4 101860 99
2006-09-06 04:46:19 51°13.598 2°56.095 1 31 16.4 101860 99
2006-09-06 04:46:22 51°13.598 2°56.095 1.8 33 16.4 101860 99
2006-09-06 04:46:26 51°13.598 2°56.095 2.1 27 16.4 101860 99
2006-09-06 04:46:31 51°13.598 2°56.095 1.6 28 16.4 101860 99
2006-09-06 04:46:36 51°13.598 2°56.095 1.6 20 16.4 101860 99
2006-09-06 04:46:40 51°13.598 2°56.095 1.3 24 16.4 101860 99
2006-09-06 04:46:46 51°13.598 2°56.095 1.4 25 16.4 101860 99
2006-09-06 04:46:51 51°13.597 2°56.094 1.2 17 16.4 101860 99
2006-09-06 04:46:56 51°13.597 2°56.094 1.6 19 16.4 101860 99
2006-09-06 04:46:59 51°13.597 2°56.094 1.2 22 16.4 101860 99
2006-09-06 04:47:06 51°13.597 2°56.094 0.6 6 16.4 101860 99
2006-09-06 04:47:10 51°13.597 2°56.094 0.8 23 16.4 101860 99
2006-09-06 04:47:16 51°13.597 2°56.094 0.9 8 16.4 101860 99
2006-09-06 04:47:21 51°13.597 2°56.094 0.8 18 16.4 101860 99
2006-09-06 04:47:26 51°13.597 2°56.094 0.9 12 16.4 101860 99
2006-09-06 04:47:31 51°13.597 2°56.094 1.1 17 16.4 101860 99
2006-09-06 04:47:36 51°13.597 2°56.094 0.9 15 16.4 101860 99
2006-09-06 04:47:40 51°13.597 2°56.094 1.2 26 16.4 101860 99
2006-09-06 04:47:46 51°13.597 2°56.094 1.4 19 16.4 101860 99
2006-09-06 04:47:51 51°13.597 2°56.094 1.2 17 16.4 101860 99
2006-09-06 04:47:56 51°13.597 2°56.094 1.7 12 16.4 101860 99
2006-09-06 04:48:01 51°13.597 2°56.094 1.2 10 16.4 101860 99
2006-09-06 04:48:06 51°13.597 2°56.094 1.6 11 16.4 101860 99
2006-09-06 04:48:11 51°13.597 2°56.094 1.6 16 16.4 101860 99
2006-09-06 04:48:16 51°13.598 2°56.094 1 17 16.4 101860 99
2006-09-06 04:48:20 51°13.597 2°56.094 1 27 16.4 101860 99
2006-09-06 04:48:25 51°13.597 2°56.094 1.3 7 16.4 101860 99
2006-09-06 04:48:30 51°13.597 2°56.094 1.4 11 16.4 101860 99
2006-09-06 04:48:36 51°13.597 2°56.094 2 23 16.4 101860 99
2006-09-06 04:48:40 51°13.597 2°56.094 2 17 16.4 101860 99
2006-09-06 04:48:45 51°13.597 2°56.094 1.9 26 16.4 101860 99
2006-09-06 04:48:51 51°13.598 2°56.094 1.6 22 16.4 101860 99
2006-09-06 04:48:56 51°13.598 2°56.094 1.7 8 16.4 101860 99
2006-09-06 04:49:01 51°13.598 2°56.095 1.1 28 16.4 101860 99
2006-09-06 04:49:06 51°13.598 2°56.095 1 3 16.4 101860 99
2006-09-06 04:49:10 51°13.598 2°56.095 0.8 2 16.4 101860 99
2006-09-06 04:49:16 51°13.598 2°56.095 0.8 9 16.4 101860 99
2006-09-06 04:49:21 51°13.598 2°56.095 1.3 11 16.4 101860 99
2006-09-06 04:49:26 51°13.598 2°56.095 1.5 8 16.4 101860 99
2006-09-06 04:49:31 51°13.598 2°56.095 1.2 8 16.4 101860 99
2006-09-06 04:49:36 51°13.598 2°56.095 1.3 23 16.4 101860 99
2006-09-06 04:49:40 51°13.598 2°56.095 1.6 22 16.4 101860 99
2006-09-06 04:49:46 51°13.598 2°56.095 1.5 27 16.4 101860 99
2006-09-06 04:49:51 51°13.597 2°56.095 1.6 28 16.4 101860 99
2006-09-06 04:49:56 51°13.597 2°56.095 1.6 26 16.4 101860 99
2006-09-06 04:50:01 51°13.597 2°56.095 1.6 32 16.4 101860 99
2006-09-06 04:50:06 51°13.597 2°56.095 1 26 16.4 101860 99
2006-09-06 04:50:11 51°13.597 2°56.095 1.1 6 16.4 101860 99
2006-09-06 04:50:16 51°13.597 2°56.095 1 20 16.4 101860 99
2006-09-06 04:50:20 51°13.597 2°56.095 1.2 23 16.4 101860 99
2006-09-06 04:50:26 51°13.597 2°56.095 1.4 11 16.4 101860 99
2006-09-06 04:50:31 51°13.597 2°56.096 1.4 13 16.4 101860 99
2006-09-06 04:50:36 51°13.597 2°56.096 1.6 15 16.4 101860 99
2006-09-06 04:50:40 51°13.597 2°56.096 1.8 14 16.4 101860 99
2006-09-06 04:50:45 51°13.597 2°56.096 2 17 16.4 101860 99
2006-09-06 04:50:51 51°13.597 2°56.096 1.9 13 16.4 101860 99
2006-09-06 04:50:56 51°13.597 2°56.096 1.5 14 16.4 101860 99
2006-09-06 04:51:00 51°13.597 2°56.096 1.4 17 16.4 101860 99
2006-09-06 04:51:06 51°13.597 2°56.096 1.4 11 16.4 101860 99
2006-09-06 04:51:11 51°13.597 2°56.095 1.1 27 16.4 101860 99
2006-09-06 04:51:16 51°13.597 2°56.095 1.9 20 16.4 101860 99
2006-09-06 04:51:21 51°13.597 2°56.095 2.6 15 16.4 101860 99
2006-09-06 04:51:26 51°13.597 2°56.095 1.8 20 16.4 101860 99
2006-09-06 04:51:30 51°13.597 2°56.095 2 13 16.4 101860 99
2006-09-06 04:51:36 51°13.597 2°56.095 1.8 13 16.4 101860 99
2006-09-06 04:51:40 51°13.597 2°56.095 2.1 22 16.4 101860 99
2006-09-06 04:51:46 51°13.597 2°56.095 2.4 20 16.4 101860 99
2006-09-06 04:51:51 51°13.597 2°56.095 2.2 11 16.4 101860 99
2006-09-06 04:51:56 51°13.597 2°56.096 1.6 11 16.4 101860 99
2006-09-06 04:52:00 51°13.597 2°56.096 1.3 16 16.4 101860 99
2006-09-06 04:52:06 51°13.598 2°56.096 1.5 21 16.4 101860 99
2006-09-06 04:52:11 51°13.598 2°56.096 1.7 26 16.4 101860 99
2006-09-06 04:52:16 51°13.598 2°56.096 1.7 16 16.4 101860 99
2006-09-06 04:52:20 51°13.598 2°56.096 1.7 20 16.4 101860 99
2006-09-06 04:52:26 51°13.598 2°56.096 1.3 28 16.4 101860 99
2006-09-06 04:52:30 51°13.597 2°56.096 1.2 30 16.4 101860 99
2006-09-06 04:52:35 51°13.597 2°56.096 0.9 32 16.4 101860 99
2006-09-06 04:52:41 51°13.597 2°56.096 0.9 20 16.4 101860 99
2006-09-06 04:52:46 51°13.598 2°56.096 0.8 21 16.4 101860 99
2006-09-06 04:52:51 51°13.597 2°56.096 1.2 16 16.4 101860 99
2006-09-06 04:52:56 51°13.597 2°56.096 1.4 18 16.4 101860 99
2006-09-06 04:53:01 51°13.597 2°56.096 1.7 15 16.4 101860 99
2006-09-06 04:53:06 51°13.597 2°56.096 1.7 17 16.4 101860 99
2006-09-06 04:53:11 51°13.598 2°56.096 1.5 19 16.4 101860 99
2006-09-06 04:53:16 51°13.598 2°56.096 1.4 27 16.4 101860 99
2006-09-06 04:53:21 51°13.598 2°56.097 1.4 19 16.4 101860 99
2006-09-06 04:53:26 51°13.598 2°56.096 1.1 25 16.4 101860 99
2006-09-06 04:53:31 51°13.598 2°56.096 1.3 21 16.4 101860 99
2006-09-06 04:53:36 51°13.598 2°56.097 0.9 10 16.4 101860 99
2006-09-06 04:53:41 51°13.598 2°56.097 0.9 16 16.4 101860 99
2006-09-06 04:53:46 51°13.598 2°56.097 1.4 56 16.4 101860 99
2006-09-06 04:53:51 51°13.598 2°56.097 1.3 41 16.4 101860 99
2006-09-06 04:53:56 51°13.598 2°56.097 1 51 16.4 101860 99
2006-09-06 04:54:01 51°13.598 2°56.097 0.8 356 16.4 101860 99
2006-09-06 04:54:06 51°13.598 2°56.096 0.7 27 16.4 101860 99
2006-09-06 04:54:11 51°13.598 2°56.096 1 27 16.4 101860 99
2006-09-06 04:54:16 51°13.598 2°56.096 1.2 27 16.4 101860 99
2006-09-06 04:54:20 51°13.598 2°56.096 1.3 32 16.4 101860 99
2006-09-06 04:54:26 51°13.598 2°56.096 1.2 32 16.4 101860 99
2006-09-06 04:54:31 51°13.598 2°56.096 0.9 31 16.4 101860 99
2006-09-06 04:54:36 51°13.598 2°56.096 0.5 8 16.4 101860 99
2006-09-06 04:54:40 51°13.598 2°56.096 0.6 8 16.4 101860 99
2006-09-06 04:54:46 51°13.598 2°56.096 0.7 346 16.4 101860 99
2006-09-06 04:54:51 51°13.598 2°56.096 1.3 -999 16.4 101860 99
2006-09-06 04:54:56 51°13.598 2°56.096 1.3 10 16.4 101860 99
2006-09-06 04:55:01 51°13.598 2°56.096 1.1 12 16.4 101860 99
2006-09-06 04:55:06 51°13.598 2°56.096 0.7 7 16.4 101860 99
2006-09-06 04:55:10 51°13.598 2°56.096 0.7 7 16.5 101860 99
2006-09-06 04:55:15 51°13.598 2°56.096 0.9 16 16.5 101860 99
2006-09-06 04:55:21 51°13.598 2°56.096 0.9 14 16.4 101860 99
2006-09-06 04:55:26 51°13.598 2°56.096 0.9 20 16.4 101860 99
2006-09-06 04:55:31 51°13.598 2°56.096 0.9 20 16.4 101860 99
2006-09-06 04:55:36 51°13.598 2°56.096 1.1 27 16.4 101860 99
2006-09-06 04:55:40 51°13.598 2°56.096 1.2 28 16.4 101860 99
2006-09-06 04:55:45 51°13.598 2°56.096 1.2 22 16.4 101860 99
2006-09-06 04:55:51 51°13.598 2°56.096 1.3 26 16.4 101860 99
2006-09-06 04:55:56 51°13.598 2°56.096 1.2 25 16.4 101860 99
2006-09-06 04:56:01 51°13.598 2°56.096 1.3 12 16.4 101860 99
2006-09-06 04:56:06 51°13.598 2°56.096 1 12 16.4 101860 99
2006-09-06 04:56:11 51°13.598 2°56.096 1 12 16.4 101860 99
2006-09-06 04:56:16 51°13.598 2°56.096 1.1 13 16.4 101860 99
2006-09-06 04:56:20 51°13.598 2°56.096 1 13 16.4 101860 99
2006-09-06 04:56:26 51°13.598 2°56.096 0.9 9 16.4 101860 99
2006-09-06 04:56:31 51°13.598 2°56.096 0.7 11 16.4 101860 99
2006-09-06 04:56:36 51°13.598 2°56.096 1 29 16.4 101860 99
2006-09-06 04:56:39 51°13.598 2°56.096 1.3 33 16.4 101860 99
2006-09-06 04:56:46 51°13.598 2°56.096 1.1 12 16.4 101860 99
2006-09-06 04:56:50 51°13.598 2°56.096 1.1 16 16.4 101860 99
2006-09-06 04:56:56 51°13.598 2°56.096 0.7 16 16.4 101860 99
2006-09-06 04:57:00 51°13.598 2°56.096 1 8 16.4 101860 99
2006-09-06 04:57:06 51°13.598 2°56.096 1 15 16.4 101860 99
2006-09-06 04:57:11 51°13.598 2°56.096 1 11 16.4 101860 99
2006-09-06 04:57:16 51°13.598 2°56.095 1.2 357 16.4 101860 99
2006-09-06 04:57:20 51°13.598 2°56.095 1.3 12 16.4 101860 99
2006-09-06 04:57:23 51°13.598 2°56.095 1.5 21 16.4 101860 99
2006-09-06 04:57:31 51°13.598 2°56.095 1.1 8 16.4 101850 99
2006-09-06 04:57:36 51°13.598 2°56.095 1.2 6 16.4 101850 99
2006-09-06 04:57:41 51°13.598 2°56.095 1.6 13 16.4 101860 99
2006-09-06 04:57:46 51°13.598 2°56.095 2.2 12 16.4 101860 99
2006-09-06 04:57:51 51°13.598 2°56.095 1.8 14 16.4 101860 99
2006-09-06 04:57:56 51°13.598 2°56.094 2.2 18 16.4 101860 99
2006-09-06 04:58:00 51°13.598 2°56.094 2.2 10 16.4 101860 99
2006-09-06 04:58:06 51°13.598 2°56.094 1.9 18 16.4 101860 99
2006-09-06 04:58:10 51°13.598 2°56.094 2 15 16.4 101860 99
2006-09-06 04:58:16 51°13.597 2°56.094 1.6 18 16.4 101860 99
2006-09-06 04:58:20 51°13.597 2°56.094 1.7 25 16.4 101860 99
2006-09-06 04:58:26 51°13.598 2°56.094 1.6 21 16.4 101860 99
2006-09-06 04:58:31 51°13.598 2°56.094 1.5 18 16.4 101860 99
2006-09-06 04:58:36 51°13.598 2°56.094 1.4 12 16.4 101860 99
2006-09-06 04:58:41 51°13.597 2°56.094 1.5 12 16.4 101860 99
2006-09-06 04:58:46 51°13.597 2°56.094 1.6 6 16.4 101860 99
2006-09-06 04:58:51 51°13.597 2°56.094 1.5 15 16.4 101860 99
2006-09-06 04:58:56 51°13.597 2°56.094 2.4 16 16.4 101860 99
2006-09-06 04:59:01 51°13.597 2°56.094 1.9 15 16.4 101860 99
2006-09-06 04:59:06 51°13.597 2°56.094 2.3 16 16.4 101860 99
2006-09-06 04:59:11 51°13.597 2°56.094 1.8 16 16.4 101860 99
2006-09-06 04:59:16 51°13.597 2°56.094 1.6 17 16.4 101860 99
2006-09-06 04:59:20 51°13.597 2°56.094 1.8 14 16.4 101860 99
2006-09-06 04:59:26 51°13.597 2°56.094 1.9 21 16.4 101860 99
2006-09-06 04:59:31 51°13.597 2°56.094 1.6 23 16.4 101860 99
2006-09-06 04:59:36 51°13.597 2°56.094 1.6 18 16.4 101860 99
2006-09-06 04:59:40 51°13.597 2°56.094 1.3 13 16.4 101860 99
2006-09-06 04:59:46 51°13.597 2°56.094 1 28 16.4 101860 99
2006-09-06 04:59:51 51°13.597 2°56.094 1.4 14 16.4 101860 99
2006-09-06 04:59:56 51°13.597 2°56.094 1.4 23 16.4 101860 99
2006-09-06 05:00:00 51°13.597 2°56.094 1.5 32 16.4 101860 99
2006-09-06 05:00:06 51°13.597 2°56.094 1.4 15 16.4 101860 99
2006-09-06 05:00:11 51°13.597 2°56.094 1.4 15 16.4 101860 99
2006-09-06 05:00:16 51°13.597 2°56.094 1 15 16.4 101860 99
2006-09-06 05:00:21 51°13.597 2°56.094 0.8 21 16.4 101860 99
2006-09-06 05:00:26 51°13.597 2°56.094 0.7 29 16.4 101860 99
2006-09-06 05:00:31 51°13.597 2°56.094 0.8 34 16.4 101860 99
2006-09-06 05:00:37 51°13.597 2°56.093 0.8 22 16.4 101860 99
2006-09-06 05:00:41 51°13.597 2°56.093 1.1 39 16.4 101860 99
2006-09-06 05:00:46 51°13.597 2°56.092 1.1 31 16.4 101860 99
2006-09-06 05:00:51 51°13.597 2°56.091 0.7 28 16.4 101860 99
2006-09-06 05:00:57 51°13.598 2°56.089 0.7 25 16.4 101860 99
2006-09-06 05:01:01 51°13.599 2°56.087 0.9 40 16.4 101860 99
2006-09-06 05:01:06 51°13.599 2°56.085 0.6 11 16.4 101860 99
2006-09-06 05:01:11 51°13.6 2°56.082 0.5 32 16.4 101860 99
2006-09-06 05:01:16 51°13.6 2°56.079 0.8 41 16.4 101860 99
2006-09-06 05:01:21 51°13.601 2°56.076 1.1 35 16.4 101860 99
2006-09-06 05:01:27 51°13.602 2°56.071 1.5 36 16.4 101860 99
2006-09-06 05:01:32 51°13.603 2°56.067 2 33 16.4 101860 99
2006-09-06 05:01:37 51°13.604 2°56.062 2.1 38 16.4 101860 99
2006-09-06 05:01:42 51°13.605 2°56.058 1.6 20 16.4 101860 99
2006-09-06 05:01:47 51°13.607 2°56.053 1.7 38 16.4 101860 99
2006-09-06 05:01:52 51°13.608 2°56.048 1.6 38 16.4 101860 99
2006-09-06 05:01:57 51°13.609 2°56.042 1.8 50 16.4 101860 99
2006-09-06 05:02:02 51°13.61 2°56.037 1.5 20 16.4 101860 99
2006-09-06 05:02:08 51°13.611 2°56.031 2.5 54 16.4 101860 99
2006-09-06 05:02:12 51°13.613 2°56.026 2.1 43 16.4 101860 99
2006-09-06 05:02:17 51°13.614 2°56.021 2.3 34 16.4 101860 99
2006-09-06 05:02:22 51°13.615 2°56.015 1.8 43 16.4 101860 99
2006-09-06 05:02:27 51°13.617 2°56.01 2.1 41 16.4 101860 99
2006-09-06 05:02:32 51°13.618 2°56.004 2.1 41 16.4 101860 99
2006-09-06 05:02:37 51°13.619 2°55.999 1.7 45 16.4 101860 99
2006-09-06 05:02:42 51°13.621 2°55.993 1.8 23 16.4 101860 99
2006-09-06 05:02:47 51°13.622 2°55.988 1.9 43 16.4 101860 99
2006-09-06 05:02:52 51°13.624 2°55.982 2.2 28 16.4 101860 99
2006-09-06 05:02:57 51°13.626 2°55.976 1.8 51 16.4 101860 99
2006-09-06 05:03:03 51°13.628 2°55.969 2.4 21 16.3 101850 99
2006-09-06 05:03:07 51°13.629 2°55.965 1.9 37 16.3 101850 99
2006-09-06 05:03:12 51°13.631 2°55.959 1.9 39 16.3 101860 99
2006-09-06 05:03:18 51°13.633 2°55.952 2.2 57 16.3 101860 99
2006-09-06 05:03:22 51°13.635 2°55.947 2.2 44 16.3 101860 99
2006-09-06 05:03:28 51°13.637 2°55.94 1.8 41 16.3 101860 99
2006-09-06 05:03:32 51°13.639 2°55.935 2 28 16.3 101860 99
2006-09-06 05:03:37 51°13.641 2°55.929 1.5 39 16.3 101860 99
2006-09-06 05:03:42 51°13.643 2°55.923 1.8 21 16.3 101850 99
2006-09-06 05:03:48 51°13.646 2°55.915 1.7 55 16.3 101850 99
2006-09-06 05:03:52 51°13.648 2°55.91 1.7 24 16.3 101850 99
2006-09-06 05:03:57 51°13.65 2°55.904 1.8 53 16.3 101850 99
2006-09-06 05:04:02 51°13.653 2°55.898 2.4 42 16.3 101860 99
2006-09-06 05:04:08 51°13.656 2°55.89 1.5 57 16.3 101860 99
2006-09-06 05:04:12 51°13.658 2°55.885 1.1 37 16.3 101860 99
2006-09-06 05:04:17 51°13.661 2°55.879 2.3 56 16.3 101860 99
2006-09-06 05:04:21 51°13.663 2°55.874 2.3 41 16.3 101860 99
2006-09-06 05:04:27 51°13.666 2°55.867 2.1 40 16.3 101860 99
2006-09-06 05:04:33 51°13.669 2°55.859 1.7 42 16.3 101850 99
2006-09-06 05:04:37 51°13.671 2°55.854 2.3 44 16.3 101850 99
2006-09-06 05:04:42 51°13.674 2°55.848 2.4 42 16.3 101860 99
2006-09-06 05:04:47 51°13.677 2°55.841 2.6 57 16.3 101860 99
2006-09-06 05:04:52 51°13.68 2°55.835 2 20 16.3 101850 99
2006-09-06 05:04:57 51°13.683 2°55.828 1.6 60 16.3 101850 99
2006-09-06 05:05:03 51°13.686 2°55.821 1.9 23 16.3 101850 99
2006-09-06 05:05:07 51°13.688 2°55.816 1.9 53 16.3 101850 99
2006-09-06 05:05:12 51°13.69 2°55.81 1.7 23 16.3 101850 99
2006-09-06 05:05:17 51°13.692 2°55.804 1.2 55 16.3 101850 99
2006-09-06 05:05:22 51°13.695 2°55.798 1.6 41 16.3 101850 99
2006-09-06 05:05:27 51°13.697 2°55.793 1.3 32 16.3 101850 99
2006-09-06 05:05:32 51°13.699 2°55.788 1.9 42 16.3 101850 99
2006-09-06 05:05:37 51°13.701 2°55.783 1.7 40 16.3 101850 99
2006-09-06 05:05:41 51°13.703 2°55.779 1.9 43 16.3 101860 99
2006-09-06 05:05:47 51°13.705 2°55.773 1.2 53 16.3 101860 99
2006-09-06 05:05:52 51°13.706 2°55.769 0.9 23 16.3 101850 99
2006-09-06 05:05:57 51°13.708 2°55.765 1.1 58 16.3 101850 99
2006-09-06 05:06:02 51°13.709 2°55.762 1 36 16.3 101860 99
2006-09-06 05:06:07 51°13.71 2°55.76 1.5 9 16.3 101860 99
2006-09-06 05:06:11 51°13.711 2°55.759 1.7 6 16.3 101850 99
2006-09-06 05:06:17 51°13.711 2°55.758 1.3 53 16.3 101850 99
2006-09-06 05:06:21 51°13.712 2°55.759 1.5 42 16.3 101860 99
2006-09-06 05:06:27 51°13.713 2°55.76 1.2 58 16.3 101860 99
2006-09-06 05:06:32 51°13.714 2°55.762 1 18 16.3 101860 99
2006-09-06 05:06:37 51°13.715 2°55.764 0.7 31 16.3 101860 99
2006-09-06 05:06:41 51°13.716 2°55.765 0.6 26 16.3 101860 99
2006-09-06 05:06:45 51°13.717 2°55.766 0.7 29 16.3 101860 99
2006-09-06 05:06:52 51°13.718 2°55.767 0.7 28 16.3 101860 99
2006-09-06 05:06:57 51°13.718 2°55.766 0.9 58 16.3 101860 99
2006-09-06 05:07:01 51°13.718 2°55.766 0.8 28 16.3 101850 99
2006-09-06 05:07:07 51°13.719 2°55.764 1.7 60 16.3 101850 99
2006-09-06 05:07:11 51°13.719 2°55.763 1.6 23 16.3 101860 99
2006-09-06 05:07:17 51°13.718 2°55.761 2.2 51 16.3 101860 99
2006-09-06 05:07:22 51°13.718 2°55.758 1.9 26 16.3 101860 99
2006-09-06 05:07:27 51°13.717 2°55.756 1.1 58 16.3 101860 99
2006-09-06 05:07:32 51°13.716 2°55.753 2.1 27 16.3 101860 99
2006-09-06 05:07:38 51°13.715 2°55.749 2.9 58 16.3 101860 99
2006-09-06 05:07:42 51°13.714 2°55.747 2.1 21 16.3 101860 99
2006-09-06 05:07:47 51°13.713 2°55.744 2 59 16.3 101860 99
2006-09-06 05:07:52 51°13.712 2°55.742 1.8 23 16.3 101860 99
2006-09-06 05:07:58 51°13.711 2°55.74 0.7 59 16.3 101860 99
2006-09-06 05:08:02 51°13.711 2°55.739 0.9 22 16.3 101860 99
2006-09-06 05:08:07 51°13.711 2°55.737 1.2 57 16.3 101860 99
2006-09-06 05:08:12 51°13.711 2°55.737 1 20 16.3 101860 99
2006-09-06 05:08:17 51°13.711 2°55.736 1.1 51 16.3 101860 99
2006-09-06 05:08:22 51°13.712 2°55.736 0.8 257 16.3 101860 99
2006-09-06 05:08:28 51°13.714 2°55.736 1.1 303 16.3 101860 99
2006-09-06 05:08:32 51°13.715 2°55.735 1.1 254 16.3 101860 99
2006-09-06 05:08:37 51°13.717 2°55.735 0.7 308 16.3 101860 99
2006-09-06 05:08:42 51°13.719 2°55.734 1 21 16.3 101860 99
2006-09-06 05:08:47 51°13.721 2°55.732 1.1 307 16.3 101860 99
2006-09-06 05:08:52 51°13.724 2°55.73 1.4 251 16.3 101860 99
2006-09-06 05:08:57 51°13.728 2°55.728 1.3 301 16.3 101860 99
2006-09-06 05:09:02 51°13.732 2°55.724 1.7 321 16.3 101860 99
2006-09-06 05:09:06 51°13.735 2°55.72 2.3 328 16.3 101860 99
2006-09-06 05:09:11 51°13.74 2°55.715 2.4 319 16.3 101860 99
2006-09-06 05:09:17 51°13.747 2°55.708 2 302 16.3 101860 99
2006-09-06 05:09:21 51°13.751 2°55.704 1.7 321 16.3 101860 99
2006-09-06 05:09:27 51°13.758 2°55.697 1.5 308 16.3 101860 99
2006-09-06 05:09:31 51°13.763 2°55.692 1.8 322 16.3 101860 99
2006-09-06 05:09:37 51°13.771 2°55.684 1.9 301 16.3 101860 99
2006-09-06 05:09:40 51°13.775 2°55.68 2 21 16.3 101850 99
2006-09-06 05:09:47 51°13.785 2°55.671 2.1 302 16.3 101850 99
2006-09-06 05:09:52 51°13.792 2°55.665 1.7 28 16.3 101860 99
2006-09-06 05:09:57 51°13.799 2°55.659 2.2 305 16.3 101860 99
2006-09-06 05:10:01 51°13.805 2°55.654 2.1 28 16.3 101860 99
2006-09-06 05:10:07 51°13.813 2°55.648 2 277 16.3 101860 99
2006-09-06 05:10:11 51°13.819 2°55.643 1.9 324 16.3 101860 99
2006-09-06 05:10:17 51°13.827 2°55.637 1.8 301 16.3 101860 99
2006-09-06 05:10:22 51°13.834 2°55.632 1.7 325 16.3 101860 99
2006-09-06 05:10:27 51°13.841 2°55.627 1.1 301 16.3 101860 99
2006-09-06 05:10:32 51°13.847 2°55.622 1.4 326 16.3 101860 99
2006-09-06 05:10:37 51°13.854 2°55.617 1.4 327 16.3 101860 99
2006-09-06 05:10:41 51°13.859 2°55.614 1.6 316 16.3 101860 99
2006-09-06 05:10:47 51°13.867 2°55.608 1.9 327 16.3 101860 99
2006-09-06 05:10:52 51°13.874 2°55.603 1.4 320 16.3 101860 99
2006-09-06 05:10:57 51°13.88 2°55.598 2.1 327 16.3 101860 99
2006-09-06 05:11:02 51°13.886 2°55.593 2.4 321 16.3 101860 99
2006-09-06 05:11:07 51°13.892 2°55.589 1.5 308 16.3 101860 99
2006-09-06 05:11:10 51°13.896 2°55.586 1.3 320 16.3 101860 99
2006-09-06 05:11:17 51°13.904 2°55.58 1.1 307 16.3 101860 99
2006-09-06 05:11:21 51°13.908 2°55.576 1.1 243 16.3 101860 99
2006-09-06 05:11:27 51°13.914 2°55.571 1.2 307 16.3 101860 99
2006-09-06 05:11:32 51°13.919 2°55.567 1.4 321 16.3 101860 99
2006-09-06 05:11:37 51°13.924 2°55.563 1.7 302 16.3 101860 99
2006-09-06 05:11:41 51°13.928 2°55.559 1.8 26 16.3 101860 99
2006-09-06 05:11:47 51°13.933 2°55.554 1.8 309 16.3 101860 99
2006-09-06 05:11:52 51°13.938 2°55.551 1.9 21 16.3 101850 99
2006-09-06 05:11:57 51°13.943 2°55.546 2.3 309 16.3 101850 99
2006-09-06 05:12:01 51°13.947 2°55.543 1.8 26 16.3 101860 99
2006-09-06 05:12:07 51°13.954 2°55.539 2.5 307 16.3 101860 99
2006-09-06 05:12:11 51°13.958 2°55.535 2.1 21 16.4 101850 99
2006-09-06 05:12:17 51°13.965 2°55.531 2.6 301 16.4 101850 99
2006-09-06 05:12:21 51°13.97 2°55.527 2.1 26 16.4 101850 99
2006-09-06 05:12:27 51°13.977 2°55.521 1.5 304 16.4 101850 99
2006-09-06 05:12:30 51°13.981 2°55.519 1.6 29 16.4 101850 99
2006-09-06 05:12:37 51°13.991 2°55.512 1.4 305 16.4 101850 99
2006-09-06 05:12:42 51°13.998 2°55.506 1.9 27 16.4 101850 99
2006-09-06 05:12:47 51°14.006 2°55.501 1.7 304 16.4 101850 99
2006-09-06 05:12:52 51°14.013 2°55.495 2.6 323 16.4 101850 99
2006-09-06 05:12:57 51°14.022 2°55.489 2.9 308 16.4 101850 99
2006-09-06 05:13:01 51°14.029 2°55.485 2.6 318 16.4 101850 99
2006-09-06 05:13:07 51°14.039 2°55.477 2.8 307 16.4 101850 99
2006-09-06 05:13:11 51°14.046 2°55.473 2.4 322 16.4 101850 99
2006-09-06 05:13:17 51°14.057 2°55.465 2.6 306 16.4 101850 99
2006-09-06 05:13:21 51°14.065 2°55.461 2.4 27 16.4 101850 99
2006-09-06 05:13:27 51°14.077 2°55.454 2.8 308 16.4 101850 99
2006-09-06 05:13:32 51°14.087 2°55.448 2.5 316 16.4 101850 99
2006-09-06 05:13:37 51°14.097 2°55.442 2.8 307 16.4 101850 99
2006-09-06 05:13:42 51°14.107 2°55.436 2.3 316 16.4 101850 99
2006-09-06 05:13:47 51°14.117 2°55.429 2.4 303 16.4 101850 99
2006-09-06 05:13:51 51°14.125 2°55.424 2.6 326 16.4 101850 99
2006-09-06 05:13:57 51°14.137 2°55.416 2.5 301 16.4 101850 99
2006-09-06 05:14:01 51°14.146 2°55.41 3.2 326 16.4 101850 99
2006-09-06 05:14:07 51°14.158 2°55.402 3 302 16.4 101850 99
2006-09-06 05:14:11 51°14.167 2°55.395 2.4 22 16.4 101850 99
2006-09-06 05:14:17 51°14.179 2°55.386 2.8 303 16.4 101850 99
2006-09-06 05:14:21 51°14.187 2°55.379 2.7 26 16.5 101850 99
2006-09-06 05:14:27 51°14.2 2°55.369 2.9 302 16.5 101850 99
2006-09-06 05:14:31 51°14.208 2°55.362 3 20 16.5 101850 99
2006-09-06 05:14:37 51°14.22 2°55.35 2.6 304 16.5 101850 99
2006-09-06 05:14:42 51°14.229 2°55.34 2.9 317 16.5 101850 99
2006-09-06 05:14:47 51°14.238 2°55.328 3.8 307 16.5 101850 99
2006-09-06 05:14:52 51°14.247 2°55.315 3.8 25 16.5 101850 99
2006-09-06 05:14:57 51°14.255 2°55.302 5 307 16.5 101850 99
2006-09-06 05:15:00 51°14.26 2°55.294 5.1 23 16.5 101850 99
2006-09-06 05:15:07 51°14.271 2°55.274 4.1 308 16.5 101850 99
2006-09-06 05:15:12 51°14.278 2°55.26 4.6 318 16.5 101850 99
2006-09-06 05:15:17 51°14.285 2°55.245 4.2 304 16.5 101850 99
2006-09-06 05:15:21 51°14.291 2°55.233 4.5 316 16.5 101850 99
2006-09-06 05:15:27 51°14.3 2°55.215 4.4 301 16.5 101850 99
2006-09-06 05:15:32 51°14.307 2°55.2 4.1 318 16.6 101850 99
2006-09-06 05:15:36 51°14.312 2°55.187 4.6 307 16.6 101850 99
2006-09-06 05:15:41 51°14.32 2°55.172 4.4 320 16.6 101840 99
2006-09-06 05:15:47 51°14.328 2°55.152 4.8 302 16.6 101840 99
2006-09-06 05:15:51 51°14.334 2°55.14 4.8 317 16.6 101840 99
2006-09-06 05:15:57 51°14.343 2°55.12 4.2 301 16.6 101840 99
2006-09-06 05:16:01 51°14.349 2°55.107 5.1 320 16.6 101850 99
2006-09-06 05:16:07 51°14.358 2°55.086 5.3 303 16.6 101850 99
2006-09-06 05:16:12 51°14.365 2°55.069 5.1 326 16.6 101850 99
2006-09-06 05:16:17 51°14.371 2°55.051 6.1 303 16.6 101850 99
2006-09-06 05:16:21 51°14.376 2°55.036 6.3 316 16.6 101850 99
2006-09-06 05:16:27 51°14.383 2°55.013 6 302 16.6 101850 99
2006-09-06 05:16:31 51°14.387 2°54.998 6.2 315 16.7 101840 99
2006-09-06 05:16:37 51°14.394 2°54.974 6.4 304 16.7 101840 99
2006-09-06 05:16:42 51°14.399 2°54.954 6.3 25 16.7 101840 99
2006-09-06 05:16:47 51°14.405 2°54.933 7 302 16.7 101840 99
2006-09-06 05:16:52 51°14.41 2°54.912 7.2 27 16.7 101850 99
2006-09-06 05:16:57 51°14.416 2°54.891 7.6 307 16.7 101850 99
2006-09-06 05:17:01 51°14.42 2°54.873 7.4 22 16.8 101840 99
2006-09-06 05:17:05 51°14.425 2°54.856 8.3 303 16.8 101840 99
2006-09-06 05:17:11 51°14.433 2°54.828 8.2 23 16.8 101840 99
2006-09-06 05:17:16 51°14.439 2°54.806 7.7 305 16.8 101840 99
2006-09-06 05:17:22 51°14.446 2°54.778 7.6 21 16.9 101830 99
2006-09-06 05:17:27 51°14.452 2°54.753 7.8 302 16.9 101830 99
2006-09-06 05:17:31 51°14.457 2°54.735 7.2 23 16.9 101830 99
2006-09-06 05:17:37 51°14.464 2°54.706 7.7 307 16.9 101830 99
2006-09-06 05:17:41 51°14.469 2°54.686 7.8 22 16.9 101830 99
2006-09-06 05:17:47 51°14.476 2°54.657 7.8 304 16.9 101830 99
2006-09-06 05:17:52 51°14.483 2°54.633 7.2 23 16.9 101840 99
2006-09-06 05:17:57 51°14.489 2°54.608 7.8 307 16.9 101840 99
2006-09-06 05:18:01 51°14.493 2°54.588 7.3 24 16.9 101840 98
2006-09-06 05:18:07 51°14.5 2°54.558 7.3 307 16.9 101840 98
2006-09-06 05:18:12 51°14.505 2°54.533 7.5 21 17 101840 98
2006-09-06 05:18:17 51°14.511 2°54.508 8.3 309 17 101840 98
2006-09-06 05:18:22 51°14.517 2°54.483 7.6 26 17 101830 98
2006-09-06 05:18:27 51°14.523 2°54.457 8 304 17 101830 98
2006-09-06 05:18:31 51°14.527 2°54.436 7.7 21 17 101830 98
2006-09-06 05:18:37 51°14.534 2°54.406 7.5 304 17 101830 98
2006-09-06 05:18:41 51°14.539 2°54.386 7.2 22 17 101830 98
2006-09-06 05:18:47 51°14.547 2°54.356 7.5 307 17 101830 98
2006-09-06 05:18:51 51°14.552 2°54.335 7.4 27 17 101830 98
2006-09-06 05:18:57 51°14.559 2°54.305 7.5 306 17 101830 98
2006-09-06 05:19:02 51°14.566 2°54.279 7.7 22 17 101840 98
2006-09-06 05:19:06 51°14.57 2°54.258 7.9 301 17 101840 98
2006-09-06 05:19:11 51°14.576 2°54.232 7.4 27 17 101830 98
2006-09-06 05:19:17 51°14.584 2°54.201 7.7 309 17 101830 98
2006-09-06 05:19:22 51°14.59 2°54.175 7.4 27 17 101840 98
2006-09-06 05:19:27 51°14.596 2°54.149 7.1 309 17 101840 98
2006-09-06 05:19:31 51°14.601 2°54.128 7.3 23 17 101840 98
2006-09-06 05:19:37 51°14.608 2°54.097 6.8 306 17 101840 98
2006-09-06 05:19:41 51°14.614 2°54.076 6.7 22 17 101840 98
2006-09-06 05:19:47 51°14.622 2°54.046 6.6 302 17 101840 98
2006-09-06 05:19:51 51°14.628 2°54.025 7.6 315 17 101840 98
2006-09-06 05:19:57 51°14.635 2°53.995 7.4 301 17 101840 98
2006-09-06 05:20:01 51°14.641 2°53.974 7.6 23 17 101840 98
2006-09-06 05:20:06 51°14.647 2°53.948 7.2 306 17 101840 98
2006-09-06 05:20:12 51°14.655 2°53.918 7.5 24 17 101840 98
2006-09-06 05:20:17 51°14.662 2°53.892 7.2 308 17 101840 98
2006-09-06 05:20:21 51°14.667 2°53.872 7.3 316 17 101840 98
2006-09-06 05:20:27 51°14.676 2°53.842 7.5 303 17 101840 98
2006-09-06 05:20:32 51°14.682 2°53.817 7.6 23 17 101830 98
2006-09-06 05:20:37 51°14.688 2°53.791 7.2 309 17 101830 98
2006-09-06 05:20:42 51°14.694 2°53.766 7.7 315 17 101840 98
2006-09-06 05:20:47 51°14.7 2°53.741 7.3 309 17 101840 98
2006-09-06 05:20:50 51°14.704 2°53.725 7.7 22 17.1 101840 98
2006-09-06 05:20:57 51°14.712 2°53.689 7.8 307 17.1 101840 98
2006-09-06 05:21:01 51°14.716 2°53.669 7.8 28 17.1 101830 98
2006-09-06 05:21:07 51°14.723 2°53.638 7.9 304 17.1 101830 98
2006-09-06 05:21:12 51°14.729 2°53.612 8.2 21 17.1 101830 98
2006-09-06 05:21:17 51°14.736 2°53.587 8.3 301 17.1 101830 98
2006-09-06 05:21:21 51°14.74 2°53.567 7.9 316 17.1 101840 98
2006-09-06 05:21:27 51°14.749 2°53.537 7.6 306 17.1 101840 98
2006-09-06 05:21:31 51°14.754 2°53.516 7.9 26 17.2 101840 98
2006-09-06 05:21:37 51°14.762 2°53.486 7.6 304 17.2 101840 98
2006-09-06 05:21:42 51°14.769 2°53.461 7.7 316 17.2 101830 98
2006-09-06 05:21:47 51°14.776 2°53.436 7.5 302 17.2 101830 98
2006-09-06 05:21:52 51°14.783 2°53.411 8.2 22 17.2 101840 98
2006-09-06 05:21:56 51°14.789 2°53.391 7.8 306 17.2 101840 98
2006-09-06 05:22:01 51°14.795 2°53.366 7.9 26 17.2 101830 98
2006-09-06 05:22:07 51°14.804 2°53.335 8.1 308 17.2 101830 98
2006-09-06 05:22:12 51°14.81 2°53.31 7.9 20 17.2 101830 98
2006-09-06 05:22:16 51°14.816 2°53.29 7.8 307 17.2 101830 98
2006-09-06 05:22:21 51°14.823 2°53.265 7.7 22 17.2 101830 98
2006-09-06 05:22:27 51°14.831 2°53.235 7.2 303 17.2 101830 98
2006-09-06 05:22:32 51°14.838 2°53.21 7.2 22 17.2 101840 97
2006-09-06 05:22:37 51°14.845 2°53.184 7.4 303 17.2 101840 97
2006-09-06 05:22:42 51°14.852 2°53.16 7.4 28 17.2 101830 97
2006-09-06 05:22:46 51°14.858 2°53.139 7.2 307 17.2 101830 97
2006-09-06 05:22:50 51°14.864 2°53.12 7.4 28 17.2 101830 97
2006-09-06 05:22:57 51°14.875 2°53.085 7.2 307 17.2 101830 97
2006-09-06 05:23:00 51°14.88 2°53.07 7.7 29 17.2 101840 97
2006-09-06 05:23:07 51°14.89 2°53.036 7.6 305 17.2 101840 97
2006-09-06 05:23:12 51°14.898 2°53.011 7.3 26 17.2 101840 97
2006-09-06 05:23:17 51°14.905 2°52.987 7 307 17.2 101840 97
2006-09-06 05:23:21 51°14.912 2°52.967 7.2 24 17.2 101840 97
2006-09-06 05:23:27 51°14.921 2°52.937 7.4 306 17.2 101840 97
2006-09-06 05:23:31 51°14.927 2°52.917 7.4 316 17.2 101830 97
2006-09-06 05:23:36 51°14.934 2°52.892 7.2 304 17.2 101830 97
2006-09-06 05:23:41 51°14.941 2°52.867 7.5 23 17.2 101840 97
2006-09-06 05:23:47 51°14.95 2°52.837 7.8 302 17.2 101840 97
2006-09-06 05:23:51 51°14.956 2°52.817 7.3 316 17.2 101840 97
2006-09-06 05:23:57 51°14.965 2°52.787 7.8 308 17.2 101840 97
2006-09-06 05:24:02 51°14.972 2°52.763 7.2 25 17.2 101840 97
2006-09-06 05:24:07 51°14.98 2°52.737 7.4 308 17.2 101840 97
2006-09-06 05:24:12 51°14.988 2°52.713 7.8 316 17.2 101840 97
2006-09-06 05:24:17 51°14.995 2°52.688 7.4 309 17.2 101840 97
2006-09-06 05:24:21 51°15.002 2°52.668 8.1 315 17.3 101840 97
2006-09-06 05:24:26 51°15.009 2°52.643 7.4 309 17.3 101840 97
2006-09-06 05:24:32 51°15.018 2°52.613 7.5 316 17.2 101840 97
2006-09-06 05:24:37 51°15.025 2°52.587 7.8 305 17.2 101840 97
2006-09-06 05:24:41 51°15.031 2°52.567 7.8 315 17.2 101830 97
2006-09-06 05:24:46 51°15.039 2°52.542 7.7 307 17.2 101830 97
2006-09-06 05:24:51 51°15.046 2°52.517 7.4 24 17.2 101830 97
2006-09-06 05:24:57 51°15.056 2°52.487 7.7 303 17.2 101830 97
2006-09-06 05:25:01 51°15.062 2°52.468 7.9 29 17.2 101840 97
2006-09-06 05:25:07 51°15.071 2°52.438 8.1 300 17.2 101840 97
2006-09-06 05:25:12 51°15.08 2°52.413 8.1 25 17.2 101840 97
2006-09-06 05:25:17 51°15.087 2°52.389 8.2 305 17.2 101840 97
2006-09-06 05:25:21 51°15.094 2°52.369 8 28 17.3 101840 97
2006-09-06 05:25:27 51°15.103 2°52.34 7.6 309 17.3 101840 97
2006-09-06 05:25:31 51°15.11 2°52.32 7.4 21 17.2 101840 97
2006-09-06 05:25:37 51°15.119 2°52.29 7.5 302 17.2 101840 97
2006-09-06 05:25:42 51°15.127 2°52.266 7.3 29 17.2 101840 97
2006-09-06 05:25:47 51°15.135 2°52.241 7.6 303 17.2 101840 97
2006-09-06 05:25:52 51°15.144 2°52.216 7.7 22 17.2 101840 97
2006-09-06 05:25:57 51°15.152 2°52.192 7.6 303 17.2 101840 97
2006-09-06 05:26:01 51°15.159 2°52.172 7.3 21 17.2 101840 97
2006-09-06 05:26:07 51°15.168 2°52.143 7.1 303 17.2 101840 97
2006-09-06 05:26:12 51°15.177 2°52.118 6.7 21 17.2 101840 97
2006-09-06 05:26:17 51°15.185 2°52.094 6.7 302 17.2 101840 97
2006-09-06 05:26:21 51°15.191 2°52.074 6.9 26 17.2 101840 97
2006-09-06 05:26:27 51°15.201 2°52.044 6.8 301 17.2 101840 97
2006-09-06 05:26:32 51°15.209 2°52.019 6.9 316 17.2 101840 97
2006-09-06 05:26:37 51°15.217 2°51.994 7.1 304 17.2 101840 97
2006-09-06 05:26:41 51°15.223 2°51.974 7 22 17.2 101840 97
2006-09-06 05:26:47 51°15.233 2°51.944 7 309 17.2 101840 97
2006-09-06 05:26:52 51°15.241 2°51.919 7 317 17.2 101840 97
2006-09-06 05:26:57 51°15.249 2°51.894 7 307 17.2 101840 97
2006-09-06 05:27:02 51°15.257 2°51.869 7.3 318 17.2 101840 97
2006-09-06 05:27:07 51°15.264 2°51.844 7.3 278 17.2 101840 97
2006-09-06 05:27:12 51°15.272 2°51.819 7.2 317 17.2 101840 97
2006-09-06 05:27:17 51°15.279 2°51.794 7.7 307 17.2 101840 97
2006-09-06 05:27:21 51°15.284 2°51.772 7.2 319 17.2 101840 97
2006-09-06 05:27:27 51°15.29 2°51.74 7.6 307 17.2 101840 97
2006-09-06 05:27:32 51°15.295 2°51.712 7.8 317 17.2 101840 97
2006-09-06 05:27:37 51°15.299 2°51.685 7 308 17.2 101840 97
2006-09-06 05:27:42 51°15.304 2°51.657 7.7 321 17.2 101850 97
2006-09-06 05:27:47 51°15.307 2°51.629 7.6 307 17.2 101850 97
2006-09-06 05:27:51 51°15.309 2°51.607 7.4 320 17.2 101840 97
2006-09-06 05:27:57 51°15.312 2°51.572 7.5 308 17.2 101840 97
2006-09-06 05:28:01 51°15.313 2°51.549 8.1 319 17.2 101840 97
2006-09-06 05:28:07 51°15.315 2°51.515 7.9 306 17.2 101840 97
2006-09-06 05:28:12 51°15.316 2°51.486 7.8 321 17.2 101840 97
2006-09-06 05:28:17 51°15.317 2°51.457 7.6 301 17.2 101840 97
2006-09-06 05:28:21 51°15.318 2°51.434 8.1 320 17.3 101840 97
2006-09-06 05:28:27 51°15.319 2°51.4 7.7 302 17.3 101840 97
2006-09-06 05:28:31 51°15.319 2°51.377 7.7 321 17.3 101850 97
2006-09-06 05:28:37 51°15.321 2°51.342 8 309 17.3 101850 97
2006-09-06 05:28:42 51°15.322 2°51.313 8 320 17.3 101840 97
2006-09-06 05:28:47 51°15.324 2°51.285 8.1 305 17.3 101840 97
2006-09-06 05:28:52 51°15.326 2°51.256 7.7 319 17.3 101850 97
2006-09-06 05:28:56 51°15.327 2°51.233 7.6 303 17.3 101850 97
2006-09-06 05:29:01 51°15.329 2°51.204 7.2 320 17.3 101840 97
2006-09-06 05:29:07 51°15.333 2°51.17 7.7 280 17.3 101840 97
2006-09-06 05:29:11 51°15.335 2°51.147 7.6 319 17.3 101840 97
2006-09-06 05:29:17 51°15.339 2°51.113 7.2 305 17.3 101840 97
2006-09-06 05:29:20 51°15.341 2°51.096 7.4 319 17.3 101840 97
2006-09-06 05:29:25 51°15.345 2°51.067 7.3 307 17.3 101840 97
2006-09-06 05:29:32 51°15.35 2°51.028 7.3 318 17.3 101850 97
2006-09-06 05:29:37 51°15.353 2°50.999 7.2 302 17.3 101850 97
2006-09-06 05:29:42 51°15.357 2°50.971 7.5 319 17.3 101850 97
2006-09-06 05:29:47 51°15.36 2°50.943 7.3 306 17.3 101850 97
2006-09-06 05:29:52 51°15.363 2°50.914 7.9 319 17.3 101840 97
2006-09-06 05:29:57 51°15.366 2°50.886 7.8 308 17.3 101840 97
2006-09-06 05:30:01 51°15.368 2°50.862 8.1 320 17.3 101840 97
2006-09-06 05:30:07 51°15.371 2°50.827 8.3 302 17.3 101840 97
2006-09-06 05:30:11 51°15.372 2°50.804 8.1 318 17.3 101840 97
2006-09-06 05:30:17 51°15.375 2°50.769 8.3 303 17.3 101840 97
2006-09-06 05:30:21 51°15.376 2°50.746 8.2 319 17.4 101840 97
2006-09-06 05:30:27 51°15.378 2°50.711 8 308 17.4 101840 97
2006-09-06 05:30:30 51°15.379 2°50.694 7.8 318 17.3 101840 97
2006-09-06 05:30:37 51°15.382 2°50.653 8.1 302 17.3 101840 97
2006-09-06 05:30:42 51°15.385 2°50.625 8.2 319 17.4 101840 97
2006-09-06 05:30:47 51°15.387 2°50.596 8.1 303 17.4 101840 97
2006-09-06 05:30:52 51°15.389 2°50.567 8.2 318 17.4 101840 97
2006-09-06 05:30:57 51°15.391 2°50.538 8.2 306 17.4 101840 97
2006-09-06 05:31:00 51°15.393 2°50.521 8 318 17.4 101850 97
2006-09-06 05:31:07 51°15.396 2°50.481 7.9 281 17.4 101850 97
2006-09-06 05:31:12 51°15.399 2°50.452 7.8 317 17.4 101830 97
2006-09-06 05:31:17 51°15.401 2°50.423 8.7 309 17.4 101830 97
2006-09-06 05:31:21 51°15.403 2°50.4 8.2 317 17.4 101840 97
2006-09-06 05:31:27 51°15.405 2°50.366 8.1 305 17.4 101840 97
2006-09-06 05:31:32 51°15.408 2°50.337 8.4 319 17.4 101830 97
2006-09-06 05:31:37 51°15.41 2°50.309 8 308 17.4 101830 97
2006-09-06 05:31:40 51°15.412 2°50.292 7.8 318 17.4 101840 97
2006-09-06 05:31:47 51°15.416 2°50.252 7.8 303 17.4 101840 97
2006-09-06 05:31:52 51°15.42 2°50.223 8.1 316 17.4 101840 97
2006-09-06 05:31:57 51°15.423 2°50.195 8.2 304 17.4 101840 97
2006-09-06 05:32:01 51°15.426 2°50.172 7.7 318 17.5 101840 97
2006-09-06 05:32:07 51°15.429 2°50.138 7.5 303 17.5 101840 97
2006-09-06 05:32:12 51°15.433 2°50.11 7.8 317 17.5 101840 97
2006-09-06 05:32:17 51°15.436 2°50.082 7.8 301 17.5 101840 97
2006-09-06 05:32:22 51°15.44 2°50.053 8.2 319 17.5 101840 97
2006-09-06 05:32:27 51°15.443 2°50.025 8.4 303 17.5 101840 97
2006-09-06 05:32:32 51°15.447 2°49.997 8.1 317 17.5 101840 97
2006-09-06 05:32:37 51°15.45 2°49.969 7.8 303 17.5 101840 97
2006-09-06 05:32:40 51°15.452 2°49.952 7.8 320 17.4 101840 97
2006-09-06 05:32:47 51°15.457 2°49.912 7.9 302 17.4 101840 97
2006-09-06 05:32:51 51°15.46 2°49.89 7.7 319 17.5 101850 97
2006-09-06 05:32:57 51°15.464 2°49.856 8 306 17.5 101850 97
2006-09-06 05:33:02 51°15.467 2°49.827 7.7 317 17.5 101840 97
2006-09-06 05:33:07 51°15.471 2°49.799 7.5 279 17.5 101840 97
2006-09-06 05:33:11 51°15.475 2°49.777 7.7 317 17.5 101840 97
2006-09-06 05:33:17 51°15.481 2°49.744 7.7 303 17.5 101840 97
2006-09-06 05:33:22 51°15.486 2°49.717 7.3 315 17.6 101840 97
2006-09-06 05:33:27 51°15.491 2°49.689 7.6 303 17.6 101840 97
2006-09-06 05:33:32 51°15.497 2°49.662 7.7 317 17.6 101840 97
2006-09-06 05:33:36 51°15.502 2°49.641 8.2 307 17.6 101840 97
2006-09-06 05:33:41 51°15.508 2°49.614 8 316 17.6 101840 97
2006-09-06 05:33:47 51°15.514 2°49.581 8.1 304 17.6 101840 97
2006-09-06 05:33:51 51°15.517 2°49.559 8 318 17.6 101840 97
2006-09-06 05:33:57 51°15.523 2°49.525 8.1 306 17.6 101840 97
2006-09-06 05:34:01 51°15.526 2°49.503 8.4 318 17.6 101840 97
2006-09-06 05:34:07 51°15.531 2°49.47 8.1 302 17.6 101840 97
2006-09-06 05:34:12 51°15.536 2°49.442 7.9 318 17.6 101840 97
2006-09-06 05:34:17 51°15.54 2°49.414 8.2 307 17.6 101840 97
2006-09-06 05:34:21 51°15.543 2°49.392 8.2 317 17.6 101840 97
2006-09-06 05:34:27 51°15.549 2°49.359 8.2 306 17.6 101840 97
2006-09-06 05:34:31 51°15.553 2°49.337 7.3 317 17.6 101840 97
2006-09-06 05:34:36 51°15.558 2°49.31 8.1 304 17.6 101840 97
2006-09-06 05:34:40 51°15.563 2°49.288 7.8 316 17.6 101840 97
2006-09-06 05:34:47 51°15.571 2°49.251 7.4 303 17.6 101840 97
2006-09-06 05:34:52 51°15.577 2°49.224 7.4 317 17.6 101840 97
2006-09-06 05:34:57 51°15.583 2°49.197 7.3 304 17.6 101840 97
2006-09-06 05:35:00 51°15.586 2°49.181 7.5 317 17.6 101830 97
2006-09-06 05:35:07 51°15.594 2°49.144 7.3 284 17.6 101830 97
2006-09-06 05:35:11 51°15.599 2°49.123 7.1 317 17.6 101840 97
2006-09-06 05:35:17 51°15.606 2°49.091 7.1 302 17.6 101840 97
2006-09-06 05:35:22 51°15.611 2°49.064 7.3 317 17.6 101840 97
2006-09-06 05:35:27 51°15.617 2°49.038 7.1 305 17.6 101840 97
2006-09-06 05:35:32 51°15.623 2°49.011 7.1 319 17.7 101840 97
2006-09-06 05:35:37 51°15.627 2°48.985 7 303 17.7 101840 97
2006-09-06 05:35:41 51°15.631 2°48.963 7.3 318 17.7 101840 97
2006-09-06 05:35:47 51°15.636 2°48.93 7.2 301 17.7 101840 97
2006-09-06 05:35:52 51°15.641 2°48.904 7.3 317 17.7 101840 97
2006-09-06 05:35:57 51°15.645 2°48.876 7.4 303 17.7 101840 97
2006-09-06 05:36:01 51°15.649 2°48.855 7.1 318 17.7 101840 97
2006-09-06 05:36:07 51°15.654 2°48.822 7.6 304 17.7 101840 97
2006-09-06 05:36:12 51°15.658 2°48.795 7.2 317 17.7 101840 97
2006-09-06 05:36:17 51°15.662 2°48.768 7.4 301 17.7 101840 97
2006-09-06 05:36:22 51°15.666 2°48.741 7.4 316 17.7 101840 97
2006-09-06 05:36:27 51°15.672 2°48.714 7.5 306 17.7 101840 97
2006-09-06 05:36:32 51°15.677 2°48.687 7.5 318 17.7 101850 97
2006-09-06 05:36:37 51°15.682 2°48.66 7.2 301 17.7 101850 97
2006-09-06 05:36:41 51°15.687 2°48.639 7.4 319 17.7 101850 97
2006-09-06 05:36:47 51°15.693 2°48.607 7.4 302 17.7 101850 97
2006-09-06 05:36:52 51°15.699 2°48.58 7.7 318 17.7 101850 97
2006-09-06 05:36:57 51°15.704 2°48.554 7.1 306 17.7 101850 97
2006-09-06 05:37:02 51°15.71 2°48.527 7.4 317 17.7 101840 97
2006-09-06 05:37:07 51°15.715 2°48.5 8 281 17.7 101840 97
2006-09-06 05:37:11 51°15.72 2°48.478 7.8 318 17.7 101850 97
2006-09-06 05:37:17 51°15.726 2°48.446 7.8 305 17.7 101850 97
2006-09-06 05:37:21 51°15.73 2°48.424 7.5 319 17.7 101840 97
2006-09-06 05:37:27 51°15.736 2°48.391 7.6 302 17.7 101840 97
2006-09-06 05:37:31 51°15.74 2°48.369 7.7 318 17.7 101840 97
2006-09-06 05:37:36 51°15.745 2°48.342 7.3 303 17.7 101840 97
2006-09-06 05:37:42 51°15.751 2°48.309 7.6 318 17.7 101840 97
2006-09-06 05:37:47 51°15.757 2°48.282 7.4 309 17.7 101840 97
2006-09-06 05:37:52 51°15.762 2°48.255 7.9 317 17.7 101840 97
2006-09-06 05:37:56 51°15.766 2°48.233 7.3 304 17.7 101840 97
2006-09-06 05:38:02 51°15.772 2°48.2 8.1 318 17.7 101840 97
2006-09-06 05:38:07 51°15.777 2°48.173 7.8 305 17.7 101840 97
2006-09-06 05:38:12 51°15.782 2°48.145 7.7 318 17.7 101840 97
2006-09-06 05:38:16 51°15.786 2°48.123 7.8 302 17.7 101840 97
2006-09-06 05:38:21 51°15.791 2°48.095 7.2 319 17.7 101840 97
2006-09-06 05:38:27 51°15.797 2°48.062 8.4 307 17.7 101840 97
2006-09-06 05:38:32 51°15.802 2°48.035 8 318 17.7 101840 97
2006-09-06 05:38:37 51°15.807 2°48.007 7.7 305 17.7 101840 97
2006-09-06 05:38:42 51°15.812 2°47.98 7.9 318 17.8 101840 97
2006-09-06 05:38:47 51°15.817 2°47.952 7.5 304 17.8 101840 97
2006-09-06 05:38:52 51°15.822 2°47.924 7.5 317 17.8 101840 97
2006-09-06 05:38:56 51°15.826 2°47.902 7.5 303 17.8 101840 97
2006-09-06 05:39:02 51°15.831 2°47.869 7.7 318 17.8 101840 97
2006-09-06 05:39:07 51°15.836 2°47.841 7.7 285 17.8 101840 97
2006-09-06 05:39:12 51°15.841 2°47.813 7.8 318 17.8 101840 97
2006-09-06 05:39:17 51°15.846 2°47.785 7.6 301 17.8 101840 97
2006-09-06 05:39:21 51°15.85 2°47.763 7.7 317 17.8 101840 97
2006-09-06 05:39:27 51°15.856 2°47.73 7.6 303 17.8 101840 97
2006-09-06 05:39:32 51°15.861 2°47.702 7.7 317 17.8 101840 97
2006-09-06 05:39:37 51°15.865 2°47.674 7.6 306 17.8 101840 97
2006-09-06 05:39:41 51°15.868 2°47.651 8 319 17.8 101850 97
2006-09-06 05:39:47 51°15.872 2°47.617 7.6 303 17.8 101850 97
2006-09-06 05:39:51 51°15.875 2°47.594 7.9 319 17.8 101840 97
2006-09-06 05:39:57 51°15.878 2°47.56 8.1 305 17.8 101840 97
2006-09-06 05:40:01 51°15.879 2°47.537 8.2 320 17.8 101840 97
2006-09-06 05:40:07 51°15.878 2°47.503 8 303 17.8 101840 97
2006-09-06 05:40:10 51°15.877 2°47.485 8 321 17.8 101840 97
2006-09-06 05:40:17 51°15.874 2°47.445 8 301 17.8 101840 97
2006-09-06 05:40:21 51°15.871 2°47.423 8.3 323 17.8 101840 97
2006-09-06 05:40:27 51°15.865 2°47.39 8.4 303 17.8 101840 97
2006-09-06 05:40:32 51°15.859 2°47.363 8.6 323 17.8 101840 97
2006-09-06 05:40:37 51°15.852 2°47.336 8.9 301 17.8 101840 97
2006-09-06 05:40:41 51°15.847 2°47.314 8.5 324 17.8 101840 97
2006-09-06 05:40:47 51°15.838 2°47.282 8.4 322 17.8 101840 97
2006-09-06 05:40:52 51°15.833 2°47.254 8.6 322 17.8 101840 97
2006-09-06 05:40:57 51°15.828 2°47.226 8.6 306 17.8 101840 97
2006-09-06 05:41:01 51°15.825 2°47.203 8.2 321 17.9 101840 97
2006-09-06 05:41:07 51°15.821 2°47.168 8.1 282 17.9 101840 97
2006-09-06 05:41:12 51°15.819 2°47.139 8.1 320 17.9 101840 97
2006-09-06 05:41:17 51°15.819 2°47.111 8.1 308 17.9 101840 97
2006-09-06 05:41:21 51°15.818 2°47.087 8.5 318 17.9 101830 97
2006-09-06 05:41:27 51°15.819 2°47.052 8.3 307 17.9 101830 97
2006-09-06 05:41:32 51°15.822 2°47.024 7.6 318 17.9 101830 97
2006-09-06 05:41:37 51°15.824 2°46.995 8 303 17.9 101830 97
2006-09-06 05:41:42 51°15.828 2°46.967 8.1 317 17.9 101840 97
2006-09-06 05:41:47 51°15.833 2°46.939 7.6 306 17.9 101840 97
2006-09-06 05:41:50 51°15.836 2°46.923 7.3 319 17.9 101840 97
2006-09-06 05:41:57 51°15.843 2°46.884 7.7 306 17.9 101840 97
2006-09-06 05:42:00 51°15.846 2°46.868 7.1 317 17.9 101840 97
2006-09-06 05:42:07 51°15.855 2°46.83 7.1 306 17.9 101840 97
2006-09-06 05:42:12 51°15.862 2°46.804 7.2 317 17.9 101840 97
2006-09-06 05:42:17 51°15.869 2°46.778 7.1 304 17.9 101840 97
2006-09-06 05:42:21 51°15.876 2°46.757 7.3 315 17.9 101840 97
2006-09-06 05:42:27 51°15.886 2°46.728 7.3 306 17.9 101840 97
2006-09-06 05:42:32 51°15.895 2°46.703 6.8 315 17.9 101840 97
2006-09-06 05:42:36 51°15.902 2°46.684 7.2 308 17.9 101840 97
2006-09-06 05:42:41 51°15.911 2°46.66 7.3 316 17.9 101840 97
2006-09-06 05:42:47 51°15.922 2°46.631 6.8 301 17.9 101840 97
2006-09-06 05:42:52 51°15.931 2°46.606 7.2 316 17.9 101840 97
2006-09-06 05:42:57 51°15.94 2°46.582 7.2 302 17.9 101840 97
2006-09-06 05:43:02 51°15.949 2°46.558 7.1 27 17.9 101840 97
2006-09-06 05:43:07 51°15.958 2°46.534 6.8 283 17.9 101840 97
2006-09-06 05:43:12 51°15.967 2°46.51 7 317 17.9 101840 97
2006-09-06 05:43:17 51°15.977 2°46.487 6.7 308 17.9 101840 97
2006-09-06 05:43:21 51°15.984 2°46.468 6.8 316 17.9 101840 96
2006-09-06 05:43:27 51°15.996 2°46.44 6.4 303 17.9 101840 96
2006-09-06 05:43:32 51°16.005 2°46.417 6.9 317 17.9 101840 96
2006-09-06 05:43:37 51°16.015 2°46.394 6.8 308 17.9 101840 96
2006-09-06 05:43:42 51°16.024 2°46.371 6.6 316 17.9 101840 96
2006-09-06 05:43:47 51°16.034 2°46.347 7.2 302 17.9 101840 96
2006-09-06 05:43:52 51°16.043 2°46.324 7.4 315 17.9 101840 97
2006-09-06 05:43:57 51°16.052 2°46.3 7.2 308 17.9 101840 97
2006-09-06 05:44:01 51°16.059 2°46.281 6.7 317 17.9 101840 96
2006-09-06 05:44:05 51°16.066 2°46.262 7.1 308 17.9 101840 96
2006-09-06 05:44:11 51°16.077 2°46.234 7 317 17.9 101840 96
2006-09-06 05:44:16 51°16.085 2°46.21 6.8 309 17.9 101840 96
2006-09-06 05:44:22 51°16.095 2°46.181 7 318 17.9 101850 96
2006-09-06 05:44:27 51°16.103 2°46.157 6.8 304 17.9 101850 96
2006-09-06 05:44:32 51°16.111 2°46.132 6.9 318 17.9 101840 96
2006-09-06 05:44:37 51°16.118 2°46.108 7 308 17.9 101840 96
2006-09-06 05:44:41 51°16.125 2°46.088 7.2 317 17.9 101840 96
2006-09-06 05:44:47 51°16.134 2°46.06 6.7 302 17.9 101840 96
2006-09-06 05:44:51 51°16.141 2°46.04 6.8 317 17.9 101840 96
2006-09-06 05:44:57 51°16.15 2°46.011 6.9 305 17.9 101840 96
2006-09-06 05:45:01 51°16.156 2°45.992 6.9 318 18 101850 96
2006-09-06 05:45:07 51°16.165 2°45.963 6.6 282 18 101850 96
2006-09-06 05:45:12 51°16.173 2°45.938 7.2 316 18 101840 96
2006-09-06 05:45:17 51°16.181 2°45.914 6.9 307 18 101840 96
2006-09-06 05:45:21 51°16.186 2°45.894 6.9 317 18 101850 96
2006-09-06 05:45:27 51°16.196 2°45.865 6.8 304 18 101850 96
2006-09-06 05:45:32 51°16.203 2°45.841 7 316 18 101850 96
2006-09-06 05:45:37 51°16.211 2°45.817 6.8 307 18 101850 96
2006-09-06 05:45:42 51°16.218 2°45.793 6.7 317 18 101850 96
2006-09-06 05:45:47 51°16.226 2°45.769 6.7 304 18 101850 96
2006-09-06 05:45:52 51°16.233 2°45.745 6.9 316 18 101850 96
2006-09-06 05:45:57 51°16.241 2°45.721 6.6 302 18 101850 96
2006-09-06 05:46:01 51°16.248 2°45.703 6.7 319 18 101850 96
2006-09-06 05:46:07 51°16.258 2°45.675 6.9 306 18 101850 96
2006-09-06 05:46:11 51°16.265 2°45.657 6.6 317 18 101840 96
2006-09-06 05:46:17 51°16.275 2°45.629 6.4 304 18 101840 96
2006-09-06 05:46:21 51°16.282 2°45.61 6.7 317 18 101850 96
2006-09-06 05:46:27 51°16.292 2°45.582 6.6 302 18 101850 96
2006-09-06 05:46:32 51°16.3 2°45.558 7 316 18 101850 96
2006-09-06 05:46:37 51°16.308 2°45.534 7 302 18 101850 96
2006-09-06 05:46:42 51°16.316 2°45.51 7.2 316 18 101850 97
2006-09-06 05:46:47 51°16.323 2°45.487 7.1 305 18 101850 97
2006-09-06 05:46:51 51°16.329 2°45.468 7.1 315 18 101850 97
2006-09-06 05:46:57 51°16.338 2°45.439 7 301 18 101850 97
2006-09-06 05:47:02 51°16.345 2°45.415 6.8 28 18 101850 97
2006-09-06 05:47:07 51°16.352 2°45.391 7.3 284 18 101850 97
2006-09-06 05:47:12 51°16.359 2°45.367 6.9 316 18 101850 96
2006-09-06 05:47:17 51°16.367 2°45.343 6.6 307 18 101850 96
2006-09-06 05:47:21 51°16.372 2°45.324 6.9 315 18 101840 96
2006-09-06 05:47:27 51°16.381 2°45.294 6.8 307 18 101840 96
2006-09-06 05:47:32 51°16.389 2°45.27 6.9 315 18 101850 96
2006-09-06 05:47:37 51°16.396 2°45.246 6.6 308 18 101850 96
2006-09-06 05:47:41 51°16.403 2°45.227 6.7 316 18 101840 96
2006-09-06 05:47:47 51°16.412 2°45.198 6.8 301 18 101840 96
2006-09-06 05:47:52 51°16.419 2°45.174 6.5 22 18 101850 96
2006-09-06 05:47:57 51°16.427 2°45.15 6.7 308 18 101850 96
2006-09-06 05:48:00 51°16.431 2°45.135 6.7 316 18 101850 96
2006-09-06 05:48:07 51°16.442 2°45.102 6.8 304 18 101850 96
2006-09-06 05:48:12 51°16.449 2°45.078 6.3 316 18 101850 96
2006-09-06 05:48:17 51°16.457 2°45.053 6.7 303 18 101850 96
2006-09-06 05:48:21 51°16.463 2°45.034 6.5 317 18.1 101850 96
2006-09-06 05:48:27 51°16.473 2°45.005 6.8 302 18.1 101850 96
2006-09-06 05:48:32 51°16.48 2°44.981 6.2 317 18.1 101850 96
2006-09-06 05:48:37 51°16.487 2°44.956 6.7 306 18.1 101850 96
2006-09-06 05:48:41 51°16.493 2°44.937 6.6 27 18.1 101850 96
2006-09-06 05:48:47 51°16.502 2°44.908 6.8 303 18.1 101850 96
2006-09-06 05:48:51 51°16.508 2°44.889 6.6 316 18.1 101850 97
2006-09-06 05:48:57 51°16.517 2°44.859 7.1 306 18.1 101850 97
2006-09-06 05:49:02 51°16.524 2°44.835 6.6 24 18.1 101850 97
2006-09-06 05:49:07 51°16.532 2°44.811 6.7 285 18.1 101850 97
2006-09-06 05:49:12 51°16.54 2°44.787 6.9 316 18.1 101850 96
2006-09-06 05:49:17 51°16.547 2°44.763 6.8 302 18.1 101850 96
2006-09-06 05:49:21 51°16.554 2°44.745 6.5 316 18.1 101850 96
2006-09-06 05:49:27 51°16.563 2°44.716 6.8 305 18.1 101850 96
2006-09-06 05:49:32 51°16.571 2°44.692 6.9 318 18.1 101850 96
2006-09-06 05:49:37 51°16.579 2°44.667 7.1 303 18.1 101850 96
2006-09-06 05:49:41 51°16.585 2°44.648 7.1 316 18.1 101850 96
2006-09-06 05:49:47 51°16.594 2°44.619 6.9 300 18.1 101850 96
2006-09-06 05:49:52 51°16.602 2°44.594 7.2 315 18.1 101850 97
2006-09-06 05:49:56 51°16.608 2°44.574 6.8 302 18.1 101850 97
2006-09-06 05:50:00 51°16.614 2°44.555 6.7 316 18.1 101840 97
2006-09-06 05:50:07 51°16.625 2°44.521 6.6 303 18.1 101840 97
2006-09-06 05:50:12 51°16.633 2°44.496 7.2 315 18.1 101840 97
2006-09-06 05:50:17 51°16.64 2°44.472 7.2 306 18.1 101840 97
2006-09-06 05:50:21 51°16.646 2°44.453 7.3 316 18.1 101840 97
2006-09-06 05:50:27 51°16.655 2°44.423 7 303 18.1 101840 97
2006-09-06 05:50:32 51°16.663 2°44.398 7.2 29 18.1 101850 96
2006-09-06 05:50:37 51°16.671 2°44.374 7.3 305 18.1 101850 96
2006-09-06 05:50:42 51°16.678 2°44.349 7.2 316 18.1 101840 96
2006-09-06 05:50:47 51°16.686 2°44.325 7 305 18.1 101840 96
2006-09-06 05:50:51 51°16.692 2°44.305 6.9 315 18.1 101840 96
2006-09-06 05:50:57 51°16.701 2°44.275 6.8 302 18.1 101840 96
2006-09-06 05:51:02 51°16.709 2°44.25 7.1 316 18.1 101850 96
2006-09-06 05:51:07 51°16.717 2°44.226 6.9 278 18.1 101850 96
2006-09-06 05:51:12 51°16.725 2°44.202 3.3 315 18.1 101850 96
2006-09-06 05:51:17 51°16.733 2°44.177 6.8 303 18.1 101850 96
2006-09-06 05:51:21 51°16.74 2°44.158 6.4 317 18.1 101850 96
2006-09-06 05:51:27 51°16.751 2°44.13 6.5 308 18.1 101850 96
2006-09-06 05:51:32 51°16.76 2°44.108 6.4 316 18.1 101850 96
2006-09-06 05:51:36 51°16.767 2°44.089 6.5 309 18.1 101850 96
2006-09-06 05:51:42 51°16.778 2°44.061 6.9 25 18.2 101850 96
2006-09-06 05:51:47 51°16.787 2°44.038 6.5 301 18.2 101850 96
2006-09-06 05:51:52 51°16.796 2°44.015 6.7 21 18.1 101840 96
2006-09-06 05:51:57 51°16.805 2°43.991 6.7 302 18.1 101840 96
2006-09-06 05:52:02 51°16.814 2°43.968 6.5 27 18.1 101850 96
2006-09-06 05:52:07 51°16.823 2°43.944 6.5 303 18.1 101850 96
2006-09-06 05:52:12 51°16.831 2°43.92 6.7 316 18.1 101840 96
2006-09-06 05:52:16 51°16.838 2°43.902 6.6 303 18.1 101840 96
2006-09-06 05:52:21 51°16.847 2°43.878 6.5 315 18.2 101840 96
2006-09-06 05:52:27 51°16.857 2°43.849 6.8 303 18.2 101840 96
2006-09-06 05:52:32 51°16.866 2°43.826 6.8 26 18.2 101850 96
2006-09-06 05:52:37 51°16.875 2°43.802 6.8 301 18.2 101850 96
2006-09-06 05:52:40 51°16.88 2°43.788 6.9 315 18.2 101850 96
2006-09-06 05:52:47 51°16.892 2°43.754 6.9 301 18.2 101850 96
2006-09-06 05:52:50 51°16.897 2°43.74 6.7 21 18.2 101850 96
2006-09-06 05:52:57 51°16.909 2°43.706 6.9 303 18.2 101850 96
2006-09-06 05:53:02 51°16.918 2°43.682 6.9 23 18.2 101850 96
2006-09-06 05:53:07 51°16.926 2°43.658 6.6 282 18.2 101850 96
2006-09-06 05:53:11 51°16.932 2°43.638 6.4 316 18.2 101850 96
2006-09-06 05:53:17 51°16.942 2°43.608 6.7 303 18.2 101850 96
2006-09-06 05:53:22 51°16.95 2°43.583 7.1 315 18.2 101850 96
2006-09-06 05:53:27 51°16.957 2°43.558 7.2 309 18.2 101850 96
2006-09-06 05:53:32 51°16.965 2°43.533 7.2 317 18.2 101840 96
2006-09-06 05:53:37 51°16.972 2°43.507 6.5 303 18.2 101840 96
2006-09-06 05:53:42 51°16.979 2°43.482 7.2 316 18.2 101840 96
2006-09-06 05:53:46 51°16.985 2°43.462 7.1 304 18.2 101840 96
2006-09-06 05:53:52 51°16.994 2°43.432 7.2 317 18.2 101850 96
2006-09-06 05:53:57 51°17.001 2°43.406 7.2 309 18.2 101850 96
2006-09-06 05:54:01 51°17.006 2°43.386 6.9 25 18.2 101840 96
2006-09-06 05:54:07 51°17.015 2°43.355 7.3 309 18.2 101840 96
2006-09-06 05:54:11 51°17.021 2°43.335 7 28 18.2 101840 96
2006-09-06 05:54:16 51°17.029 2°43.31 7 301 18.2 101840 96
2006-09-06 05:54:21 51°17.037 2°43.285 7.4 29 18.2 101840 96
2006-09-06 05:54:27 51°17.047 2°43.256 6.4 305 18.2 101840 96
2006-09-06 05:54:32 51°17.055 2°43.232 6.7 27 18.2 101850 96
2006-09-06 05:54:37 51°17.064 2°43.208 7.2 301 18.2 101850 96
2006-09-06 05:54:41 51°17.071 2°43.189 6.6 21 18.2 101840 96
2006-09-06 05:54:47 51°17.082 2°43.16 6.8 304 18.2 101840 96
2006-09-06 05:54:52 51°17.091 2°43.137 6.9 27 18.2 101840 96
2006-09-06 05:54:57 51°17.1 2°43.113 6.1 303 18.2 101840 96
2006-09-06 05:55:01 51°17.107 2°43.094 6.5 316 18.2 101850 96
2006-09-06 05:55:07 51°17.118 2°43.065 6.5 283 18.2 101850 96
2006-09-06 05:55:11 51°17.125 2°43.046 6.8 316 18.2 101850 96
2006-09-06 05:55:17 51°17.135 2°43.017 6.6 308 18.2 101850 96
2006-09-06 05:55:22 51°17.144 2°42.994 6.4 316 18.2 101850 96
2006-09-06 05:55:27 51°17.153 2°42.97 6.1 302 18.2 101850 96
2006-09-06 05:55:31 51°17.16 2°42.95 6.8 316 18.2 101850 96
2006-09-06 05:55:36 51°17.168 2°42.926 7.1 302 18.2 101850 96
2006-09-06 05:55:41 51°17.176 2°42.901 7 317 18.2 101850 96
2006-09-06 05:55:47 51°17.185 2°42.871 6.5 318 18.2 101850 96
2006-09-06 05:55:52 51°17.194 2°42.847 6.3 319 18.2 101850 96
2006-09-06 05:55:57 51°17.202 2°42.822 6.9 304 18.2 101850 96
2006-09-06 05:56:01 51°17.209 2°42.804 6.4 317 18.2 101850 96
2006-09-06 05:56:07 51°17.219 2°42.774 6.6 317 18.2 101850 96
2006-09-06 05:56:11 51°17.226 2°42.756 6.7 316 18.3 101850 96
2006-09-06 05:56:17 51°17.237 2°42.726 6.7 317 18.3 101850 96
2006-09-06 05:56:21 51°17.244 2°42.707 7.1 317 18.3 101850 96
2006-09-06 05:56:27 51°17.255 2°42.678 6.8 317 18.3 101850 96
2006-09-06 05:56:32 51°17.264 2°42.654 6.5 317 18.3 101840 96
2006-09-06 05:56:37 51°17.273 2°42.629 6.6 318 18.3 101840 96
2006-09-06 05:56:41 51°17.28 2°42.61 6.7 316 18.3 101850 96
2006-09-06 05:56:47 51°17.29 2°42.58 6.7 307 18.3 101850 96
2006-09-06 05:56:52 51°17.299 2°42.555 6.8 316 18.3 101840 96
2006-09-06 05:56:57 51°17.307 2°42.53 7.2 318 18.3 101840 96
2006-09-06 05:57:01 51°17.315 2°42.51 7.1 318 18.3 101850 96
2006-09-06 05:57:07 51°17.325 2°42.48 6.9 282 18.3 101850 96
2006-09-06 05:57:11 51°17.332 2°42.461 7.2 318 18.3 101850 96
2006-09-06 05:57:16 51°17.341 2°42.436 6.8 317 18.3 101850 96
2006-09-06 05:57:22 51°17.352 2°42.406 7 317 18.3 101840 96
2006-09-06 05:57:27 51°17.36 2°42.382 6.9 318 18.3 101840 96
2006-09-06 05:57:32 51°17.369 2°42.357 6.7 317 18.3 101850 96
2006-09-06 05:57:37 51°17.377 2°42.332 7 319 18.3 101850 96
2006-09-06 05:57:41 51°17.384 2°42.312 7.1 318 18.3 101850 96
2006-09-06 05:57:47 51°17.393 2°42.283 6.8 318 18.3 101850 96
2006-09-06 05:57:51 51°17.4 2°42.263 7.2 317 18.3 101840 96
2006-09-06 05:57:57 51°17.41 2°42.233 7 301 18.3 101840 96
2006-09-06 05:58:00 51°17.415 2°42.218 7.3 317 18.3 101840 96
2006-09-06 05:58:07 51°17.426 2°42.184 7.4 318 18.3 101840 96
2006-09-06 05:58:12 51°17.434 2°42.158 6.8 317 18.3 101840 96
2006-09-06 05:58:17 51°17.441 2°42.131 7 307 18.3 101840 96
2006-09-06 05:58:20 51°17.446 2°42.116 7.2 317 18.3 101840 96
2006-09-06 05:58:27 51°17.459 2°42.082 7.1 317 18.3 101840 96
2006-09-06 05:58:32 51°17.467 2°42.057 6.8 317 18.3 101840 96
2006-09-06 05:58:37 51°17.475 2°42.031 7 303 18.3 101840 96
2006-09-06 05:58:41 51°17.481 2°42.011 7 317 18.3 101850 96
2006-09-06 05:58:47 51°17.49 2°41.981 7.3 316 18.3 101850 96
2006-09-06 05:58:51 51°17.497 2°41.96 7.3 316 18.3 101830 96
2006-09-06 05:58:57 51°17.506 2°41.93 7.2 317 18.3 101830 96
2006-09-06 05:59:01 51°17.513 2°41.91 7.1 316 18.3 101840 96
2006-09-06 05:59:07 51°17.523 2°41.88 6.8 283 18.3 101840 96
2006-09-06 05:59:12 51°17.531 2°41.855 7.4 316 18.4 101840 96
2006-09-06 05:59:17 51°17.539 2°41.83 7.1 318 18.4 101840 96
2006-09-06 05:59:21 51°17.545 2°41.81 7.3 317 18.3 101840 96
2006-09-06 05:59:27 51°17.554 2°41.78 6.8 303 18.3 101840 96
2006-09-06 05:59:32 51°17.562 2°41.755 7 317 18.3 101840 96
2006-09-06 05:59:37 51°17.57 2°41.729 7.2 318 18.3 101840 96
2006-09-06 05:59:41 51°17.576 2°41.709 6.8 317 18.3 101840 96
2006-09-06 05:59:47 51°17.586 2°41.679 6.9 317 18.3 101840 96
2006-09-06 05:59:51 51°17.592 2°41.658 6.7 317 18.3 101840 96
2006-09-06 05:59:57 51°17.601 2°41.628 7.2 316 18.3 101840 96
2006-09-06 06:00:02 51°17.609 2°41.603 7.4 316 18.3 101840 96
2006-09-06 06:00:07 51°17.617 2°41.577 6.9 318 18.3 101840 96
2006-09-06 06:00:12 51°17.624 2°41.551 7.6 316 18.3 101850 96
2006-09-06 06:00:17 51°17.632 2°41.526 6.9 303 18.3 101850 96
2006-09-06 06:00:22 51°17.639 2°41.501 7.4 317 18.4 101840 96
2006-09-06 06:00:27 51°17.647 2°41.475 7.4 316 18.4 101840 96
2006-09-06 06:00:31 51°17.653 2°41.454 7.3 317 18.3 101840 96
2006-09-06 06:00:37 51°17.661 2°41.424 7.2 304 18.3 101840 96
2006-09-06 06:00:41 51°17.666 2°41.403 7.2 317 18.3 101840 96
2006-09-06 06:00:46 51°17.672 2°41.377 6.9 318 18.3 101840 96
2006-09-06 06:00:52 51°17.68 2°41.346 7.6 317 18.3 101830 96
2006-09-06 06:00:57 51°17.687 2°41.319 7.7 317 18.3 101830 96
2006-09-06 06:01:01 51°17.693 2°41.299 7.1 24 18.4 101830 96
2006-09-06 06:01:07 51°17.701 2°41.268 7.1 316 18.4 101830 96
2006-09-06 06:01:12 51°17.709 2°41.243 7.4 316 18.3 101840 96
2006-09-06 06:01:17 51°17.717 2°41.218 6.6 303 18.3 101840 96
2006-09-06 06:01:22 51°17.725 2°41.193 7.1 316 18.4 101830 96
2006-09-06 06:01:27 51°17.733 2°41.169 7.1 38 18.4 101830 96
2006-09-06 06:01:32 51°17.741 2°41.144 6.7 317 18.4 101840 96
2006-09-06 06:01:37 51°17.749 2°41.119 6.9 37 18.4 101840 96
2006-09-06 06:01:42 51°17.757 2°41.094 6.9 24 18.4 101840 96
2006-09-06 06:01:47 51°17.765 2°41.069 7.4 307 18.4 101840 96
2006-09-06 06:01:51 51°17.771 2°41.049 7.8 315 18.4 101840 96
2006-09-06 06:01:57 51°17.781 2°41.019 7.3 39 18.4 101840 96
2006-09-06 06:02:01 51°17.787 2°40.999 7.8 23 18.4 101830 96
2006-09-06 06:02:06 51°17.794 2°40.974 7.1 38 18.4 101830 96
2006-09-06 06:02:11 51°17.802 2°40.948 7.1 316 18.3 101840 96
2006-09-06 06:02:17 51°17.812 2°40.918 6.9 316 18.3 101840 96
2006-09-06 06:02:22 51°17.82 2°40.894 7.2 316 18.3 101840 96
2006-09-06 06:02:27 51°17.828 2°40.869 7.1 316 18.3 101840 96
2006-09-06 06:02:31 51°17.835 2°40.849 7.3 317 18.3 101840 96
2006-09-06 06:02:37 51°17.845 2°40.819 7 309 18.3 101840 96
2006-09-06 06:02:42 51°17.854 2°40.795 6.5 318 18.3 101840 96
2006-09-06 06:02:47 51°17.863 2°40.772 7.1 316 18.3 101840 96
2006-09-06 06:02:52 51°17.872 2°40.748 6.6 315 18.3 101840 96
2006-09-06 06:02:57 51°17.881 2°40.723 7.3 315 18.3 101840 96
2006-09-06 06:03:01 51°17.888 2°40.704 6.7 317 18.3 101830 96
2006-09-06 06:03:07 51°17.899 2°40.675 7.2 315 18.3 101830 96
2006-09-06 06:03:11 51°17.906 2°40.656 7.3 315 18.3 101840 96
2006-09-06 06:03:17 51°17.916 2°40.626 6.6 303 18.3 101840 96
2006-09-06 06:03:21 51°17.923 2°40.606 7.5 315 18.3 101840 96
2006-09-06 06:03:27 51°17.934 2°40.577 7 317 18.3 101840 96
2006-09-06 06:03:31 51°17.94 2°40.557 7 316 18.4 101840 96
2006-09-06 06:03:36 51°17.949 2°40.533 6.7 318 18.4 101840 96
2006-09-06 06:03:41 51°17.958 2°40.508 7.1 317 18.4 101840 96
2006-09-06 06:03:47 51°17.969 2°40.479 6.6 303 18.4 101840 96
2006-09-06 06:03:52 51°17.977 2°40.454 6.9 317 18.4 101840 96
2006-09-06 06:03:57 51°17.986 2°40.429 6.9 318 18.4 101840 96
2006-09-06 06:04:02 51°17.995 2°40.405 7 318 18.4 101840 96
2006-09-06 06:04:07 51°18.004 2°40.38 7.2 281 18.4 101840 96
2006-09-06 06:04:12 51°18.012 2°40.355 7.4 317 18.4 101830 96
2006-09-06 06:04:17 51°18.02 2°40.329 7.5 315 18.4 101830 96
2006-09-06 06:04:22 51°18.028 2°40.304 7.5 316 18.4 101840 96
2006-09-06 06:04:27 51°18.037 2°40.278 7 318 18.4 101840 96
2006-09-06 06:04:32 51°18.045 2°40.253 6.9 318 18.4 101840 96
2006-09-06 06:04:37 51°18.053 2°40.227 6.6 318 18.4 101840 96
2006-09-06 06:04:41 51°18.06 2°40.207 7.3 317 18.4 101830 96
2006-09-06 06:04:46 51°18.069 2°40.183 7.2 318 18.4 101830 96
2006-09-06 06:04:52 51°18.08 2°40.153 7.1 317 18.4 101840 96
2006-09-06 06:04:57 51°18.089 2°40.129 7.3 308 18.4 101840 96
2006-09-06 06:05:01 51°18.097 2°40.11 6.6 316 18.4 101840 96
2006-09-06 06:05:06 51°18.106 2°40.086 6.7 317 18.4 101840 96
2006-09-06 06:05:12 51°18.116 2°40.056 6.8 318 18.4 101840 95
2006-09-06 06:05:17 51°18.125 2°40.032 6.6 319 18.4 101840 95
2006-09-06 06:05:21 51°18.133 2°40.013 6.6 318 18.4 101840 95
2006-09-06 06:05:27 51°18.143 2°39.983 6.7 319 18.4 101840 95
2006-09-06 06:05:32 51°18.151 2°39.958 6.8 318 18.4 101830 95